Zurück zum Katalog

STARLINK-32031

AktivKommunikationVLEO
NORAD 60142·PAYLOAD·🇺🇸 United States

Gestartet Jun 27, 2024 von Cape Canaveral Space Force Station

Loading…

Nächste Überflüge (nächste 24 Stunden)

TLE

AktuellSource: CelesTrak SupGP

Epoche: Sep 14, 2026, 14:59 UTC

1 60142C 24120H   26257.62479167  .00070973  00000+0  20974-2 0  2572
2 60142  53.1564 158.8384 0001266  87.2394 228.8836 15.34348354    12

Verfolge STARLINK-32031 in Echtzeit mit AllMySat

Download on the App Store